Regional Weather Roundup
Issued by NWS

Home | Current Version | Previous Version | Graphics & Text | Print | Product List | Glossary Off
Versions: 1 2 3 4 5 6 7 8 9 10 11 12 13 14 15 16 17 18 19 20 21 22 23 24 25 26 27 28 29 30 31 32 33 34 35 36 37 38 39 40 41 42 43 44 45 46 47 48 49 50

000
ASUS43 KTOP 251159
RWRKS

WEATHER ROUNDUP FOR KANSAS
NATIONAL WEATHER SERVICE GOODLAND KS
700 AM CDT FRI JUL 25 2014

NOTE:  "FAIR" INDICATES FEW OR NO CLOUDS BELOW 12,000 FEET WITH NO
SIGNIFICANT WEATHER AND/OR OBSTRUCTIONS TO VISIBILITY.

KSZ001>006-013>018-027>032-041>047-251300-
NORTHWEST KANSAS

CITY           SKY/WX    TMP DP  RH WIND       PRES   REMARKS
GOODLAND       PTCLDY    69  56  62 W8        29.90S
6HR MIN TEMP:  67; 6HR MAX TEMP:  78;

HAYS           CLEAR     54 N/A N/A SW18      29.84S
HILL CITY      PTCLDY    80  62  54 SW10      29.82F
6HR MIN TEMP:  79; 6HR MAX TEMP:  86;

RUSSELL        CLEAR     78  66  66 S18       29.83R
6HR MIN TEMP:  78; 6HR MAX TEMP:  82;

$$

KSZ061>065-074>080-084>089-251300-
SOUTHWEST KANSAS

CITY           SKY/WX    TMP DP  RH WIND       PRES   REMARKS
DODGE CITY     CLEAR     74  63  68 S10       29.92S
6HR MIN TEMP:  74; 6HR MAX TEMP:  79;

ELKHART          N/A     74  57  55 SW15        N/A
GARDEN CITY    CLEAR     74  61  63 S14       29.91F
6HR MIN TEMP:  74; 6HR MAX TEMP:  81;

GREAT BEND     CLEAR     75  66  73 S17       29.86S
LIBERAL        CLEAR     75  61  60 S15       29.97F
$$

KSZ066>073-081>083-090>101-251300-
SOUTHEAST KANSAS

CITY           SKY/WX    TMP DP  RH WIND       PRES   REMARKS
CHANUTE        CLEAR     72  70  93 S13       29.94R
6HR MIN TEMP:  70; 6HR MAX TEMP:  74;

COFFEYVILLE    CLEAR     73  71  93 S12       29.95R
6HR MIN TEMP:  72; 6HR MAX TEMP:  75;

HUTCHINSON     CLEAR     74  68  81 S8        29.90S
6HR MIN TEMP:  74; 6HR MAX TEMP:  80;

MEDICINE LODGE   N/A     73  68  84 SE5       29.92S
NEWTON         CLEAR     73  64  73 S15       29.94R
PARSONS        CLEAR     72  69  90 S8        29.96R
6HR MIN TEMP:  72; 6HR MAX TEMP:  76;

WICHITA INTL   PTCLDY    73  68  84 S12       29.91S
6HR MIN TEMP:  73; 6HR MAX TEMP:  79;

WICHITA JABRA  CLEAR     74  69  85 S16       29.91S
6HR MIN TEMP:  74; 6HR MAX TEMP:  78;

WINFIELD       CLEAR     74  70  87 SW16      29.94S
6HR MIN TEMP:  74; 6HR MAX TEMP:  77;

$$

KSZ007>012-019>026-033>040-048>060-102>105-251300-
NORTHEAST KANSAS

CITY           SKY/WX    TMP DP  RH WIND       PRES   REMARKS
CONCORDIA      CLEAR     78  70  76 SW21G30   29.80F
6HR MIN TEMP:  77; 6HR MAX TEMP:  79;

EMPORIA        PTCLDY    74  69  85 S18       29.88S
6HR MIN TEMP:  73; 6HR MAX TEMP:  75;

LAWRENCE       MOCLDY    72  68  87 E7        29.89R
6HR MIN TEMP:  68; 6HR MAX TEMP:  74;

MANHATTAN      PTCLDY    77  70  79 SW18      29.82F
6HR MIN TEMP:  77; 6HR MAX TEMP:  80;

OLATHE IND     MOCLDY    70  67  90 S10       29.92R
6HR MIN TEMP:  69; 6HR MAX TEMP:  72;

OLATHE EXE     MOCLDY    70  66  87 S10       29.92R
6HR MIN TEMP:  68; 6HR MAX TEMP:  71;

SALINA         CLEAR     78  68  71 S16       29.84S
6HR MIN TEMP:  78; 6HR MAX TEMP:  82;

TOPEKA BILLARD CLOUDY    78  71  79 S6        29.86S
6HR MIN TEMP:  75; 6HR MAX TEMP:  79;

TOPEKA FORBES  CLOUDY    76  70  82 S10       29.87R
6HR MIN TEMP:  74; 6HR MAX TEMP:  77;

$$



USA.gov is the U.S. government's official web portal to all federal, state and local government web resources and services.